Date,TemperatureHighF,TemperatureAvgF,TemperatureLowF,DewpointHighF,DewpointAvgF,DewpointLowF,HumidityHigh,HumidityAvg,HumidityLow,PressureMaxIn,PressureMinIn,WindSpeedMaxMPH,WindSpeedAvgMPH,GustSpeedMaxMPH,PrecipitationSumIn
2013-1-1,30.6,19.2,8.8,13.3,6.6,-2.7,84,61,27,30.78,30.63,4,1,9,0.00
2013-1-2,34.0,25.3,18.8,9.9,3.9,-2.0,64,40,22,30.79,30.60,5,2,12,0.00
2013-1-3,39.2,23.8,10.5,11.9,0.4,-6.3,68,39,16,30.89,30.62,6,1,10,0.00
2013-1-4,45.4,27.8,13.5,16.9,9.6,3.6,68,49,25,30.75,30.48,2,0,5,0.00
2013-1-5,38.5,22.3,16.9,11.0,6.9,2.8,67,52,26,30.74,30.45,3,1,7,0.00
2013-1-8,32.2,30.3,29.7,16.7,16.2,15.2,58,55,50,30.54,30.53,1,1,3,0.00
2013-1-9,56.2,35.9,22.4,20.2,16.8,14.3,74,50,19,30.73,30.35,3,1,5,0.00
2013-1-10,40.5,29.1,18.0,22.7,17.5,11.7,81,62,41,30.36,29.83,3,0,6,0.00
2013-1-11,43.2,28.4,9.3,23.3,11.9,-3.6,80,54,17,30.30,29.61,13,4,24,0.00
2013-1-12,16.4,9.2,4.3,4.6,1.6,-1.3,81,71,58,30.71,30.30,6,2,10,0.00
2013-1-13,14.3,7.7,1.7,3.8,0.6,-4.1,79,72,59,30.85,30.69,3,0,6,0.00
2013-1-14,15.4,7.2,0.0,2.8,-4.1,-8.9,76,60,41,30.89,30.73,4,1,8,0.00
2013-1-15,32.5,17.2,-3.3,13.7,2.8,-9.5,79,55,29,30.87,30.59,4,0,9,0.00
2013-1-16,54.2,38.9,23.8,19.3,15.4,10.0,66,40,22,30.76,30.45,7,2,13,0.00
2013-1-17,52.3,33.7,19.7,20.4,14.5,10.7,76,50,19,30.91,30.61,5,1,11,0.00
2013-1-18,59.0,40.5,20.3,13.2,5.6,-1.4,71,31,9,30.68,30.23,14,2,23,0.00
2013-1-19,54.4,46.1,34.3,6.9,1.0,-1.7,27,16,11,30.55,30.25,13,4,29,0.00
2013-1-21,58.0,50.8,45.5,16.7,2.0,-7.7,31,14,9,30.54,30.02,12,4,25,0.00
2013-1-22,63.9,47.7,31.2,15.7,-1.1,-14.4,43,15,4,30.25,29.88,10,3,25,0.00
2013-1-23,66.1,46.7,27.5,11.2,0.5,-15.8,38,18,5,30.22,30.05,8,2,18,0.00
2013-1-24,63.1,44.3,25.7,25.7,15.6,6.2,60,34,11,30.14,29.90,10,2,21,0.00
2013-1-25,51.6,39.3,28.7,26.3,23.8,20.5,73,55,35,30.20,30.02,4,1,7,0.00
2013-1-26,51.9,39.2,26.1,36.9,26.8,20.8,89,64,36,30.15,29.73,3,0,6,0.00
2013-1-27,58.1,43.2,30.9,36.3,29.1,18.6,93,62,31,29.79,29.66,7,2,14,0.01
2013-1-28,49.2,33.8,25.1,31.0,23.2,15.9,92,68,35,29.88,29.56,6,2,15,0.00
2013-1-29,31.0,24.8,15.7,22.5,12.3,0.9,90,62,30,30.18,29.79,5,1,10,0.12
2013-1-30,40.2,27.3,11.1,13.9,8.3,1.4,80,48,26,30.17,29.92,12,4,28,0.01
2013-1-31,48.6,36.8,24.7,24.4,15.9,8.4,75,46,20,30.28,29.90,12,2,25,0.00
2013-2-1,49.1,36.1,22.1,22.8,16.6,9.7,87,51,22,30.26,30.08,12,4,28,0.00
2013-2-2,57.5,37.9,19.7,22.6,14.3,2.8,81,45,12,30.46,30.21,11,2,22,0.00
2013-2-3,52.5,36.3,21.8,17.1,11.3,-2.9,68,40,10,30.27,29.92,7,1,15,0.00
2013-2-4,55.6,42.0,27.6,15.1,6.2,-1.0,47,25,12,30.08,29.78,13,2,22,0.00
2013-2-5,61.3,45.3,27.0,20.5,14.8,10.3,57,31,17,30.13,29.76,10,2,21,0.00
2013-2-6,54.8,41.2,28.1,33.6,22.4,16.1,84,52,22,30.06,29.78,10,2,19,0.00
2013-2-7,48.3,35.7,23.9,31.5,18.3,6.7,91,54,21,30.29,30.06,7,2,15,0.00
2013-2-8,51.4,31.9,17.2,14.4,9.3,0.1,73,44,12,30.17,29.76,3,1,9,0.00
2013-2-9,38.8,29.6,22.7,26.7,18.4,10.4,84,64,39,29.84,29.66,4,2,11,0.00
2013-2-10,36.2,27.9,21.4,19.8,13.3,3.4,83,57,26,30.22,29.67,6,2,15,0.00
2013-2-11,27.2,22.3,16.4,16.7,13.2,8.2,82,68,54,30.30,30.19,4,1,9,0.00
2013-2-12,42.5,27.6,10.5,11.3,1.9,-12.4,81,41,10,30.33,30.13,6,1,11,0.00
2013-2-13,48.2,33.6,18.0,11.8,8.1,3.2,61,36,19,30.16,30.02,13,3,24,0.00
2013-2-14,36.6,26.6,19.7,23.3,17.3,8.7,88,69,31,30.50,30.01,6,1,13,0.04
2013-2-15,41.2,26.4,12.6,20.6,12.7,1.4,85,60,19,30.57,30.37,7,2,16,0.05
2013-2-16,55.6,44.9,19.5,16.6,9.5,4.3,77,26,13,30.37,29.89,14,4,27,0.00
2013-2-17,60.4,47.9,31.6,16.4,1.8,-9.1,50,18,6,29.90,29.46,16,6,28,0.00
2013-2-18,41.5,31.8,22.4,18.9,7.2,-4.6,74,40,15,30.24,29.72,12,4,21,0.00
2013-2-19,40.3,28.7,19.9,13.5,8.5,3.2,61,44,24,30.25,29.93,3,1,9,0.00
2013-2-20,36.6,25.9,19.9,26.7,16.5,12.4,92,69,40,29.94,29.76,4,2,9,0.00
2013-2-21,27.8,21.0,14.9,20.3,16.1,11.1,89,81,67,30.15,29.86,3,1,9,0.23
2013-2-22,32.8,24.1,13.6,19.0,14.6,8.5,87,68,52,30.17,30.02,6,2,13,0.03
2013-2-23,39.5,27.0,13.1,26.7,15.3,7.3,89,62,41,30.03,29.75,4,1,9,0.00
2013-2-24,29.4,26.8,23.0,27.0,24.4,17.9,93,91,80,30.31,29.80,6,1,16,0.03
2013-2-25,34.0,22.7,9.3,19.4,14.0,5.3,87,70,46,30.35,30.04,6,1,14,0.09
2013-2-26,33.4,26.1,14.6,25.1,17.6,10.6,90,71,46,30.30,29.96,7,1,13,0.02
2013-2-27,36.8,26.6,14.8,15.2,9.1,1.2,72,50,26,30.48,30.28,5,2,11,0.00
2013-2-28,42.9,32.1,15.2,17.1,7.8,-0.5,70,38,20,30.49,30.23,11,3,24,0.00
2013-3-1,45.2,35.6,25.3,25.4,18.1,8.2,78,51,28,30.42,30.22,12,2,20,0.00
2013-3-2,60.5,43.9,26.0,29.3,22.4,17.8,81,48,22,30.41,29.98,12,1,21,0.00
2013-3-3,61.8,50.4,37.8,26.3,20.8,14.3,57,33,17,29.98,29.48,18,6,30,0.00
2013-3-4,51.1,31.5,18.1,27.8,21.7,12.7,89,69,31,30.44,29.50,16,4,34,0.05
2013-3-5,38.5,25.0,10.2,19.0,14.0,6.1,85,65,37,30.56,30.33,4,1,9,0.03
2013-3-6,57.8,35.7,18.1,28.4,21.8,14.8,88,61,23,30.33,29.90,4,1,7,0.00
2013-3-7,64.0,44.4,26.4,28.9,23.3,16.8,85,50,17,30.05,29.85,4,1,11,0.00
2013-3-8,46.7,37.4,29.0,31.6,28.2,23.2,84,70,51,29.98,29.73,4,1,10,0.00
2013-3-9,35.5,31.7,25.3,31.9,28.1,16.0,95,87,67,30.25,29.65,7,1,14,0.16
2013-3-10,44.6,32.4,15.7,24.1,14.6,6.6,82,51,24,30.36,30.08,7,2,12,0.06
2013-3-11,53.8,41.9,30.7,29.9,19.2,9.5,94,47,21,30.18,29.84,14,4,30,0.00
2013-3-12,34.6,29.3,24.7,29.5,24.5,20.2,94,83,65,30.49,30.17,4,1,9,0.17
2013-3-13,64.5,42.1,25.7,32.5,24.9,16.2,91,58,17,30.42,30.15,6,2,12,0.05
2013-3-14,71.1,54.3,39.8,26.6,22.2,9.1,56,33,9,30.27,30.02,6,2,11,0.00
2013-3-15,74.4,64.4,50.1,25.4,19.4,14.8,34,18,11,30.03,29.62,18,4,33,0.00
2013-3-16,60.1,47.0,37.6,32.2,29.7,25.0,73,52,27,29.93,29.65,7,2,11,0.00
2013-3-17,57.0,43.3,29.8,28.9,21.0,10.3,82,46,16,29.81,29.49,16,6,27,0.00
2013-3-18,46.8,39.5,33.5,13.4,7.6,0.1,38,26,22,29.95,29.81,11,6,21,0.00
2013-3-19,54.2,44.1,28.7,16.9,-2.1,-26.2,60,18,4,30.44,29.90,14,6,32,0.00
2013-3-20,50.2,34.7,19.7,22.2,17.1,12.1,83,51,27,30.43,29.79,3,1,7,0.00
2013-3-21,58.3,45.1,35.2,33.7,19.1,3.8,60,37,15,29.82,29.47,12,3,19,0.01
2013-3-22,44.6,33.4,26.0,29.2,17.9,6.9,93,57,28,30.02,29.72,7,3,17,0.00
2013-3-23,25.6,20.0,13.5,23.6,16.6,9.3,92,86,75,30.49,29.99,6,2,13,0.04
2013-3-24,26.0,17.6,4.1,16.8,10.1,-0.4,86,73,56,30.48,30.37,5,1,10,0.24
2013-3-25,32.7,23.3,12.9,15.6,11.4,8.0,85,62,38,30.54,30.41,8,3,15,0.01
2013-3-26,44.1,31.4,15.9,27.4,18.1,8.5,80,59,39,30.40,30.06,5,1,8,0.00
2013-3-27,51.6,40.4,29.0,35.8,29.6,23.4,86,66,49,30.16,30.05,5,1,10,0.00
2013-3-28,63.5,46.3,30.4,34.9,29.2,24.4,92,58,25,30.16,30.00,5,1,12,0.00
2013-3-29,65.2,51.7,37.2,32.9,27.5,21.3,73,43,19,30.12,29.94,10,2,18,0.00
2013-3-30,66.0,50.1,36.2,37.4,28.4,17.4,83,49,16,30.19,29.89,13,4,26,0.00
2013-3-31,69.6,51.4,31.6,35.9,25.3,15.7,86,45,15,30.14,29.85,5,1,14,0.00
2013-4-1,51.4,41.1,31.2,33.6,29.0,23.6,81,63,39,30.16,30.02,5,2,11,0.01
2013-4-2,39.8,37.3,34.1,35.4,32.8,30.0,94,84,72,30.20,30.05,3,1,6,0.31
2013-4-3,60.7,47.2,36.5,38.8,32.9,24.4,96,64,27,30.20,29.99,5,1,10,0.05
2013-4-4,68.4,55.0,35.9,34.6,28.1,21.4,81,39,17,30.13,29.84,6,2,11,0.00
2013-4-5,72.0,59.8,48.5,34.8,24.6,16.0,50,28,12,29.84,29.50,15,4,24,0.00
2013-4-6,63.9,55.0,44.6,29.0,21.3,14.7,39,27,16,29.86,29.65,12,4,22,0.00
2013-4-7,63.9,52.9,40.2,33.9,26.9,15.3,74,40,15,29.78,29.56,23,4,46,0.00
2013-4-8,62.7,45.5,28.1,34.0,29.6,25.1,92,57,25,29.84,29.31,14,3,25,0.01
2013-4-9,28.1,18.5,12.4,26.1,14.6,8.0,92,84,77,30.52,29.83,6,2,12,0.00
2013-4-10,27.9,17.9,7.2,16.9,10.1,2.6,85,72,55,30.51,30.10,6,2,10,0.16
2013-4-11,54.2,37.2,19.4,35.1,25.4,15.5,86,65,34,30.10,29.80,6,2,16,0.06
2013-4-12,57.8,43.5,33.8,33.9,30.2,22.1,88,61,26,30.00,29.79,9,2,17,0.00
2013-4-13,66.6,47.7,29.5,38.3,26.4,14.4,90,53,14,29.94,29.33,13,3,22,0.01
2013-4-14,47.3,41.8,37.0,39.3,16.2,-0.1,89,39,16,29.76,29.39,14,7,31,0.11
2013-4-15,39.6,28.5,23.0,27.8,22.5,9.9,92,81,30,30.23,29.74,7,1,13,0.07
2013-4-16,33.2,27.8,23.0,29.0,24.2,20.5,92,87,75,30.23,30.01,6,1,12,0.13
2013-4-17,30.0,26.0,20.2,28.0,23.6,17.2,97,90,81,30.37,30.06,6,2,16,0.00
2013-4-18,34.1,24.8,11.9,17.9,13.1,7.8,88,63,41,30.41,30.30,6,2,10,0.32
2013-4-19,53.8,39.9,21.8,24.0,17.3,12.0,76,44,23,30.31,29.91,10,3,21,0.03
2013-4-20,56.9,46.2,32.4,33.0,28.0,20.5,80,51,28,29.99,29.86,6,1,18,0.00
2013-4-21,61.6,49.0,32.1,33.8,24.4,12.1,84,44,15,30.05,29.90,9,2,19,0.00
2013-4-22,51.4,34.1,23.0,36.4,27.1,20.8,93,77,43,30.48,29.78,8,2,20,0.14
2013-4-23,33.7,25.2,20.0,21.2,17.6,12.6,91,74,44,30.51,30.32,5,1,9,0.42
2013-4-24,54.8,38.3,22.1,27.0,17.4,9.4,80,48,17,30.38,30.18,5,2,9,0.01
2013-4-25,65.5,47.4,27.8,29.1,20.7,11.9,71,38,14,30.20,29.86,6,2,11,0.00
2013-4-26,66.9,55.6,40.8,26.3,18.5,10.2,52,25,14,30.11,29.88,7,3,13,0.00
2013-4-27,74.7,61.8,42.6,25.4,16.2,8.9,49,19,9,30.10,29.82,11,4,19,0.00
2013-4-28,77.9,65.6,44.1,29.8,21.7,17.1,44,20,11,29.85,29.59,10,3,16,0.00
2013-4-29,77.7,67.4,49.6,36.6,26.1,16.0,55,24,10,29.69,29.33,14,4,23,0.00
2013-4-30,69.4,51.2,34.6,38.7,32.7,17.7,94,54,15,30.04,29.33,10,3,21,0.20
2013-5-1,35.6,29.9,24.7,34.0,28.1,21.9,96,93,89,30.83,30.04,5,2,13,0.24
2013-5-2,42.8,32.4,19.1,25.1,19.5,12.0,89,62,31,30.92,30.54,4,2,10,0.27
2013-5-3,58.6,44.8,26.3,31.5,25.5,20.3,86,52,24,30.54,30.05,4,1,10,0.00
2013-5-4,57.5,48.4,34.7,34.1,27.5,21.1,77,46,29,30.18,30.03,5,2,9,0.00
2013-5-5,56.9,46.7,35.6,38.0,27.2,20.3,66,48,28,30.19,30.06,7,2,12,0.00
2013-5-6,65.2,53.6,38.5,37.9,32.2,26.7,78,47,26,30.06,29.78,4,1,10,0.00
2013-5-7,70.3,54.9,44.2,46.1,37.9,30.1,82,56,24,29.91,29.74,7,1,18,0.01
2013-5-8,59.2,50.2,46.0,46.4,40.4,32.3,93,70,45,30.06,29.80,10,3,18,0.40
2013-5-9,59.2,50.5,45.4,44.5,40.6,35.3,91,70,42,30.18,29.97,8,2,17,0.08
2013-5-10,66.1,54.3,39.6,41.4,35.7,29.6,84,52,26,30.20,30.10,8,2,12,0.01
2013-5-11,66.9,56.7,41.9,41.4,37.0,31.3,79,49,28,30.32,30.08,7,2,17,0.00
2013-5-12,77.6,65.7,50.1,38.6,33.0,28.5,63,33,18,30.11,29.89,7,2,13,0.00
2013-5-13,72.0,69.7,68.4,41.1,34.9,32.6,34,28,26,29.75,29.71,7,4,11,0.00
2013-5-14,85.5,72.6,56.6,38.6,34.2,28.1,49,26,13,29.74,29.62,14,4,31,0.00
2013-5-15,80.1,67.8,54.5,49.5,39.2,31.1,68,38,20,29.81,29.61,14,3,26,0.00
2013-5-16,82.0,67.1,52.6,47.8,40.7,29.1,77,44,15,29.74,29.54,11,2,17,0.00
2013-5-17,85.9,70.6,51.4,47.0,34.5,15.1,72,33,9,29.69,29.45,8,2,15,0.00
2013-5-18,76.0,67.1,56.9,37.5,28.3,14.9,48,24,11,29.65,29.46,17,4,38,0.00
2013-5-19,68.8,60.0,50.1,36.8,28.3,19.0,49,31,17,29.67,29.56,7,3,17,0.00
2013-5-20,62.4,54.7,47.7,45.9,40.5,31.3,90,60,42,29.91,29.67,8,3,15,0.06
2013-5-21,70.8,56.2,39.8,41.5,33.0,23.0,87,47,19,29.97,29.73,10,2,21,0.00
2013-5-22,75.6,58.7,43.5,51.5,38.1,31.7,81,50,21,29.90,29.70,5,1,16,0.04
2013-5-23,69.9,58.1,48.6,50.9,46.4,44.2,87,67,44,30.00,29.79,5,2,10,0.00
2013-5-24,83.2,64.7,44.5,51.0,42.6,31.7,91,52,17,29.84,29.67,4,1,11,0.00
2013-5-25,87.2,71.7,52.0,49.1,37.2,21.3,79,33,10,29.76,29.56,5,1,9,0.00
2013-5-26,84.5,71.0,54.2,44.3,29.5,15.1,48,23,10,29.69,29.55,10,2,18,0.00
2013-5-27,82.4,68.6,51.0,37.8,27.2,16.2,45,24,9,29.66,29.48,10,2,17,0.00
2013-5-28,79.9,65.5,48.8,45.3,36.0,21.0,68,37,12,29.65,29.31,5,1,11,0.00
2013-5-29,66.8,56.6,48.2,49.6,41.5,27.6,93,61,24,29.62,29.38,12,2,22,0.36
2013-5-30,69.1,58.1,44.9,36.0,28.0,17.4,66,35,15,29.73,29.50,15,4,36,0.00
2013-5-31,71.3,60.8,47.9,28.7,18.1,7.7,44,21,10,29.86,29.67,12,3,27,0.00
2013-6-1,70.8,58.4,44.9,39.7,34.9,22.1,71,43,26,30.09,29.86,4,1,10,0.00
2013-6-2,83.8,65.2,43.6,39.9,33.3,24.0,67,35,12,30.07,29.57,14,1,36,0.00
2013-6-3,88.4,72.4,50.5,41.4,30.2,19.1,56,26,8,29.62,29.43,11,3,27,0.00
2013-6-4,71.8,60.2,50.5,50.8,43.2,25.3,89,56,25,30.11,29.62,7,1,12,0.09
2013-6-5,58.7,50.9,46.4,48.9,45.5,42.8,94,82,62,30.15,30.02,4,1,10,0.06
2013-6-6,78.6,61.6,41.1,50.1,40.8,33.2,94,54,21,30.11,29.83,4,0,7,0.01
2013-6-7,79.8,65.4,49.2,46.2,41.8,38.2,77,45,24,29.91,29.56,8,1,16,0.00
2013-6-8,77.6,67.0,55.7,49.4,42.5,34.8,63,42,26,29.86,29.45,8,1,19,0.00
2013-6-9,91.0,71.0,47.6,48.5,39.6,31.1,80,39,13,29.89,29.61,4,1,9,0.00
2013-6-10,94.0,78.9,59.5,51.4,39.2,29.0,52,27,11,29.66,29.50,7,1,16,0.00
2013-6-11,97.1,79.4,57.0,48.4,31.9,8.7,59,23,4,29.62,29.43,12,2,28,0.00
2013-6-12,92.1,76.0,56.7,52.6,35.0,22.2,53,25,11,29.84,29.60,6,1,13,0.00
2013-6-13,81.8,67.4,57.0,66.1,55.1,51.3,85,66,38,29.86,29.67,5,0,10,0.02
2013-6-14,89.0,72.9,56.7,55.6,44.5,28.5,81,42,12,29.73,29.58,7,1,17,0.00
2013-6-15,79.6,69.0,56.3,50.1,46.1,42.0,65,45,29,29.86,29.67,4,1,12,0.00
2013-6-16,81.2,68.9,55.3,57.6,43.0,29.6,77,43,16,29.95,29.75,10,1,19,0.00
2013-6-17,81.6,67.3,51.4,62.5,46.6,35.9,80,49,24,29.97,29.78,6,0,12,0.03
2013-6-18,82.8,68.1,54.1,55.1,49.9,41.4,87,56,25,29.95,29.65,6,1,14,0.00
2013-6-19,94.9,72.7,51.1,54.2,42.5,19.0,87,42,10,29.98,29.58,3,0,10,0.00
2013-6-20,89.5,75.2,55.1,46.8,31.9,14.2,62,23,10,29.85,29.61,6,1,12,0.00
2013-6-21,91.4,75.8,56.0,55.5,39.6,20.3,67,31,9,29.86,29.67,8,1,19,0.00
2013-6-22,88.8,69.7,54.5,56.8,45.2,30.7,73,44,13,29.92,29.68,5,1,13,0.00
2013-6-23,83.2,67.7,50.2,50.8,45.0,39.6,79,47,24,30.02,29.80,7,1,11,0.00
2013-6-24,89.3,75.0,59.3,49.5,38.8,19.3,60,31,11,29.87,29.64,8,1,16,0.00
2013-6-25,90.5,78.8,61.6,43.5,32.0,22.9,44,19,12,29.92,29.66,9,3,19,0.00
2013-6-26,96.1,78.4,56.6,51.7,40.2,32.6,60,29,12,30.00,29.87,4,1,12,0.00
2013-6-27,97.3,83.0,63.1,51.8,40.9,32.8,53,25,12,30.09,29.89,7,1,15,0.00
2013-6-28,92.1,74.9,59.6,64.8,52.0,41.3,92,49,26,30.25,30.03,6,0,13,0.05
2013-6-29,85.1,70.9,58.1,58.1,54.3,45.1,86,58,25,30.22,30.02,1,0,6,0.08
2013-6-30,80.1,69.8,62.9,59.4,55.0,52.1,75,60,42,30.20,30.08,0,0,5,0.08
2013-7-1,86.7,70.2,54.5,57.3,52.7,48.5,90,56,31,30.25,30.13,0,0,0,0.00
2013-7-2,87.6,70.8,53.5,57.4,49.7,43.8,88,51,26,30.24,30.05,0,0,0,0.00
2013-7-3,93.2,74.7,54.2,52.7,46.8,40.9,82,41,19,30.07,29.83,0,0,1,0.00
2013-7-4,95.9,76.6,56.9,56.5,47.3,41.8,74,39,17,29.95,29.76,0,0,0,0.00
2013-7-5,92.1,74.6,62.9,60.1,51.8,43.5,89,47,26,29.88,29.71,0,0,0,0.00
2013-7-6,94.5,77.3,61.5,58.6,49.6,41.0,78,41,17,29.87,29.73,0,0,1,0.00
2013-7-7,87.4,75.6,62.1,58.1,51.5,44.5,84,45,25,30.03,29.83,7,1,16,0.00
2013-7-8,94.3,78.8,63.7,58.1,48.7,35.0,78,40,13,30.00,29.86,9,2,23,0.00
2013-7-9,95.1,80.6,67.1,57.1,44.6,35.8,61,31,15,30.04,29.94,8,1,16,0.00
2013-7-10,91.0,76.2,61.6,57.8,49.8,39.3,66,41,20,30.12,29.91,5,1,11,0.00
2013-7-11,97.5,79.1,59.6,57.4,51.3,34.2,82,44,11,30.02,29.72,13,2,22,0.02
2013-7-12,91.6,75.0,65.8,63.1,54.1,44.9,86,52,22,30.00,29.73,13,2,26,0.11
2013-7-13,86.5,70.9,64.5,65.2,58.4,53.8,82,66,35,30.11,29.94,12,1,27,0.04
2013-7-14,79.8,69.9,57.8,62.5,57.9,52.4,91,67,46,30.23,30.05,4,1,10,0.00
2013-7-15,78.3,68.9,60.7,64.4,59.4,54.3,92,73,52,30.15,30.06,7,1,15,0.05
2013-7-16,85.3,69.1,52.9,54.6,50.1,44.0,94,56,26,30.17,30.08,4,1,11,0.00
2013-7-17,90.5,73.0,54.8,57.4,52.3,47.1,86,52,24,30.19,29.98,3,0,6,0.00
2013-7-18,92.1,74.2,60.7,56.2,52.9,44.7,78,50,24,30.13,29.94,11,1,18,0.00
2013-7-19,84.0,74.2,64.3,59.1,55.5,46.0,80,54,28,30.13,29.97,4,1,9,0.00
2013-7-20,89.5,70.8,56.7,56.9,52.2,45.9,80,56,26,30.02,29.86,2,0,7,0.00
2013-7-21,87.2,80.4,70.9,59.9,52.9,31.3,57,40,19,29.96,29.80,5,1,9,0.00
2013-7-22,94.7,79.0,59.5,55.8,49.3,30.1,74,38,18,29.90,29.78,5,1,10,0.00
2013-7-23,90.5,77.9,63.7,56.9,44.8,18.3,59,33,13,30.06,29.79,6,1,13,0.00
2013-7-24,82.8,72.7,62.1,61.0,53.9,41.6,77,54,27,30.17,29.96,9,1,18,0.00
2013-7-25,78.5,65.9,58.1,60.7,55.0,49.4,92,70,42,30.30,30.03,4,1,15,0.30
2013-7-26,81.6,69.3,57.0,59.1,51.1,44.8,83,54,31,30.30,30.08,4,1,13,0.06
2013-7-27,75.1,64.2,51.4,61.0,53.9,48.6,94,72,47,30.15,30.07,3,0,9,0.14
2013-7-28,72.0,62.9,59.0,60.5,58.1,55.6,96,85,60,30.08,29.92,4,0,11,0.01
2013-7-29,71.5,63.1,57.3,61.9,56.5,47.5,97,80,50,30.21,29.95,6,0,15,0.01
2013-7-30,88.2,71.1,56.9,55.7,51.3,45.2,84,54,23,30.25,30.08,3,0,6,0.00
2013-7-31,90.5,72.9,57.0,55.4,50.9,42.2,80,50,19,30.30,30.07,4,0,13,0.00
2013-8-1,89.7,70.9,57.2,62.0,55.1,42.5,85,60,24,30.14,29.90,9,1,18,0.03
2013-8-2,96.1,76.6,59.0,58.3,49.7,36.2,84,44,14,29.99,29.83,6,1,16,0.00
2013-8-3,91.4,71.5,61.6,61.4,54.4,40.4,92,58,20,30.28,29.91,7,1,17,0.07
2013-8-4,87.4,72.8,55.1,59.8,49.9,39.3,88,49,20,30.20,29.97,6,1,14,0.00
2013-8-5,87.4,70.8,57.2,57.7,50.8,44.0,74,52,26,30.14,29.90,7,1,15,0.02
2013-8-6,86.3,71.0,56.0,58.9,49.1,39.1,85,50,24,30.09,29.89,11,1,28,0.05
2013-8-7,77.7,66.3,60.2,56.8,52.0,45.6,83,61,37,30.12,29.94,5,0,13,0.00
2013-8-8,75.3,64.8,55.4,58.4,52.9,42.6,91,67,37,30.18,30.04,5,0,10,0.00
2013-8-9,79.2,66.2,53.3,52.8,48.6,41.7,90,56,28,30.22,30.12,8,1,20,0.00
2013-8-10,89.5,68.2,50.7,57.8,47.1,39.7,82,52,19,30.26,30.06,6,1,14,0.11
2013-8-11,82.6,70.9,57.2,52.0,47.4,41.4,75,46,27,30.23,30.06,3,0,10,0.00
2013-8-12,81.8,67.8,54.1,56.9,51.1,42.5,92,59,26,30.30,30.09,6,1,12,0.12
2013-8-13,77.9,65.9,54.1,55.9,50.2,43.4,89,60,33,30.28,30.10,9,1,21,0.01
2013-8-14,82.8,67.7,53.2,54.2,48.4,41.0,90,55,24,30.27,30.07,2,0,11,0.00
2013-8-15,85.5,68.0,50.5,51.5,46.4,37.5,84,50,19,30.17,30.07,3,0,6,0.00
2013-8-16,92.3,73.7,52.6,53.5,45.0,37.1,83,41,15,30.17,30.02,5,0,12,0.00
2013-8-17,95.9,75.2,55.0,55.9,44.4,29.8,89,40,10,30.11,29.92,4,0,10,0.00
2013-8-18,91.2,73.4,55.7,59.1,47.3,37.0,85,44,17,30.10,29.91,7,0,17,0.00
2013-8-19,95.4,77.5,54.7,53.1,44.6,35.7,77,37,13,30.09,29.89,3,0,10,0.00
2013-8-20,97.3,79.3,58.9,53.7,42.4,29.7,68,32,10,29.95,29.80,5,1,11,0.00
2013-8-21,92.1,76.1,63.7,62.5,49.4,38.8,76,43,21,30.10,29.84,7,1,12,0.14
2013-8-22,82.0,69.9,60.2,60.7,56.0,52.3,85,62,42,30.22,30.05,3,0,10,0.01
2013-8-23,85.7,71.8,59.8,59.2,53.5,45.5,85,54,31,30.12,29.87,8,2,16,0.02
2013-8-24,86.5,70.7,56.3,62.0,52.1,44.7,82,54,26,30.11,29.90,9,1,18,0.11
2013-8-25,88.2,73.0,58.0,55.1,51.5,43.8,81,50,24,30.13,29.99,10,1,20,0.00
2013-8-26,89.9,72.7,59.6,61.0,54.8,48.1,82,56,26,30.12,30.00,12,2,27,0.07
2013-8-27,91.0,77.6,60.9,60.2,53.6,48.7,85,46,25,30.11,29.90,5,1,12,0.00
2013-8-28,92.9,77.7,62.9,58.4,51.5,43.4,70,43,23,30.05,29.94,5,1,15,0.00
2013-8-29,95.4,80.1,62.1,55.6,46.0,40.5,62,32,16,30.10,29.95,10,2,25,0.00
2013-8-30,89.9,77.0,64.0,55.9,49.6,42.5,66,40,25,30.12,29.94,7,1,16,0.00
2013-8-31,91.4,75.1,59.8,56.1,48.9,42.4,79,42,20,30.07,29.90,9,1,19,0.00
2013-9-1,76.8,69.5,61.2,60.4,56.4,47.8,93,64,47,30.18,30.02,3,0,9,0.01
2013-9-2,91.2,73.9,56.7,58.8,52.8,42.6,91,53,19,30.15,29.92,5,0,11,0.00
2013-9-3,93.2,79.7,62.6,56.2,49.7,44.2,71,38,19,30.07,29.92,5,1,11,0.00
2013-9-4,92.1,77.2,64.7,58.5,51.5,46.2,68,43,22,30.09,29.95,3,0,10,0.00
2013-9-5,93.2,75.7,60.1,58.4,51.6,44.6,76,46,20,30.16,30.01,3,0,6,0.00
2013-9-6,95.1,77.2,60.4,55.0,49.3,41.4,79,41,17,30.11,29.94,12,1,28,0.00
2013-9-7,93.8,76.4,58.0,53.4,48.7,41.6,77,41,18,30.10,29.90,4,0,7,0.00
2013-9-8,89.7,73.7,57.0,52.3,48.0,43.7,76,43,22,30.00,29.75,6,1,12,0.00
2013-9-9,81.6,66.9,58.0,61.0,53.2,47.9,96,65,33,30.07,29.78,9,1,19,0.85
2013-9-10,66.0,60.1,57.2,59.6,58.1,56.4,97,93,77,30.27,30.00,1,0,5,0.23
2013-9-11,62.3,60.4,59.0,61.7,59.6,58.2,98,97,94,30.27,30.20,2,0,6,0.89
2013-9-12,62.7,60.4,58.4,62.3,60.1,58.1,99,99,98,30.33,30.25,2,0,5,0.08
2013-9-13,73.3,64.0,57.8,63.2,59.4,56.3,99,86,61,30.25,29.91,1,0,4,0.05
2013-9-14,71.8,63.4,56.2,59.9,55.7,51.6,94,77,54,30.05,29.90,8,1,12,0.02
2013-9-15,59.0,57.0,53.9,57.9,56.0,53.3,98,97,94,30.38,30.03,3,0,6,0.01
2013-9-16,73.5,60.0,53.3,58.8,55.3,52.8,99,86,56,30.36,30.07,1,0,4,0.01
2013-9-17,83.8,66.8,48.8,59.8,48.4,39.2,98,59,22,30.13,29.75,6,1,14,0.01
2013-9-18,84.7,69.8,55.0,58.3,44.4,35.5,78,42,24,29.88,29.73,16,2,29,0.01
2013-9-19,67.1,59.4,50.1,48.4,43.8,37.5,88,58,37,30.29,29.81,3,0,5,0.00
2013-9-20,73.0,58.4,45.4,47.7,44.6,40.1,92,64,34,30.33,30.09,2,0,6,0.01
2013-9-21,82.2,62.8,43.2,53.8,45.6,36.7,94,58,27,30.14,29.76,5,0,14,0.01
2013-9-22,77.6,60.4,52.3,52.5,44.9,35.9,89,58,30,29.82,29.56,9,1,18,0.00
2013-9-23,67.3,58.7,50.1,51.9,36.7,26.3,96,51,23,30.12,29.55,9,2,22,0.01
2013-9-24,76.3,58.1,40.2,45.2,37.6,27.4,89,51,17,30.27,29.92,1,0,5,0.00
2013-9-25,77.7,59.0,40.5,51.8,41.9,30.3,88,57,30,29.93,29.51,3,0,6,0.00
2013-9-26,68.1,57.4,46.1,47.0,43.0,30.6,84,60,34,29.90,29.54,2,0,6,0.01
2013-9-27,53.9,47.2,39.5,50.1,45.3,38.5,97,93,74,30.23,29.77,0,0,3,0.01
2013-9-28,68.1,51.8,33.1,39.7,31.9,22.8,97,53,21,30.38,30.19,7,1,16,0.00
2013-9-29,76.0,59.9,38.3,50.3,30.1,14.6,84,39,11,30.25,29.89,10,1,16,0.06
2013-9-30,82.2,66.4,52.5,47.7,35.8,22.5,60,34,14,29.94,29.61,5,1,10,0.00
2013-10-1,73.7,61.4,47.0,46.6,38.7,24.8,75,45,24,29.92,29.65,6,1,12,0.00
2013-10-2,77.0,59.4,42.5,45.1,40.8,32.7,89,57,22,29.86,29.70,3,0,8,0.00
2013-10-3,61.3,51.4,39.2,47.8,41.7,36.8,96,72,48,29.77,29.65,2,0,6,0.04
2013-10-4,48.2,37.8,30.6,47.1,34.8,28.6,96,89,70,30.27,29.65,4,1,10,0.61
2013-10-5,64.2,44.6,28.4,31.4,20.9,7.9,95,50,14,30.29,30.08,9,2,26,0.01
2013-10-6,69.3,53.2,34.3,39.5,28.0,12.5,78,42,21,30.25,30.04,3,1,13,0.00
2013-10-7,77.6,55.6,34.3,42.6,35.4,27.7,93,54,17,30.16,29.72,3,0,7,0.00
2013-10-8,77.7,61.2,47.7,42.4,33.7,16.6,69,39,13,29.74,29.43,5,1,15,0.00
2013-10-9,64.2,53.7,43.3,44.1,39.1,31.7,76,59,40,29.86,29.62,2,0,6,0.00
2013-10-10,60.2,50.6,44.6,49.3,43.7,39.0,93,78,57,29.81,29.42,11,1,19,0.09
2013-10-11,62.9,54.9,44.9,40.3,29.4,22.5,80,40,24,29.93,29.26,18,3,36,0.00
2013-10-12,56.5,46.3,39.8,40.5,38.7,36.4,92,76,53,30.15,29.93,2,0,6,0.00
2013-10-13,61.6,48.1,33.4,43.6,38.9,32.1,96,73,46,30.17,29.78,2,0,6,0.00
2013-10-14,53.2,46.1,38.5,40.9,36.0,27.3,91,69,40,30.11,29.70,11,1,30,0.02
2013-10-15,38.0,37.2,36.6,27.0,26.5,26.1,68,65,63,30.28,30.26,1,0,5,0.00
2013-10-16,53.9,39.4,26.6,32.1,27.9,24.2,92,67,34,30.25,30.00,2,0,5,0.00
2013-10-17,48.6,40.5,31.9,32.4,29.5,24.8,82,66,47,30.20,30.00,2,0,5,0.00
2013-10-18,45.1,36.2,29.3,34.5,30.0,26.1,96,80,49,30.26,30.04,3,1,6,0.23
2013-10-19,64.5,48.1,29.1,27.8,23.0,17.5,92,43,17,30.19,29.74,7,1,11,0.00
2013-10-20,52.2,42.6,32.8,37.4,30.4,19.5,95,66,28,30.15,29.73,4,1,7,0.22
2013-10-21,61.2,45.0,29.0,34.5,27.6,19.8,96,59,22,30.27,30.01,8,1,11,0.00
2013-10-22,63.9,51.0,34.3,35.6,29.4,21.2,84,47,26,30.21,29.99,6,1,11,0.00
2013-10-23,65.0,49.0,33.8,37.0,31.7,27.3,83,56,27,30.19,30.00,4,1,6,0.00
2013-10-24,55.0,42.3,32.5,38.5,34.6,30.3,93,75,50,30.32,30.12,2,0,5,0.00
2013-10-25,68.9,49.3,30.3,39.2,32.9,29.0,96,60,25,30.27,30.01,6,1,9,0.00
2013-10-26,62.1,48.3,34.9,35.5,31.9,28.1,85,56,28,30.31,30.07,4,1,8,0.00
2013-10-27,69.8,52.2,31.6,32.4,25.3,17.3,88,44,14,30.08,29.68,8,2,16,0.00
2013-10-28,49.6,37.5,31.9,34.7,31.2,24.2,96,81,40,30.13,29.69,3,1,5,0.09
2013-10-29,37.3,34.5,32.2,33.8,32.2,31.0,97,92,79,30.11,29.94,2,0,5,0.04
2013-10-30,42.3,34.5,30.9,36.3,32.3,26.1,97,92,72,29.97,29.86,3,0,5,0.18
2013-10-31,54.5,44.8,27.8,26.6,19.1,13.1,91,40,21,29.94,29.73,18,5,29,0.01
2013-11-1,52.9,41.3,31.3,31.6,25.6,16.1,81,56,23,30.26,29.81,5,1,14,0.00
2013-11-2,62.3,42.9,25.1,33.2,23.6,15.0,85,50,22,30.30,29.71,5,1,5,0.00
2013-11-3,66.8,50.6,33.8,28.6,21.2,10.3,72,38,12,29.72,29.43,8,2,13,0.00
2013-11-4,42.8,36.5,29.1,29.2,18.2,9.8,82,50,26,30.06,29.69,11,3,16,0.00
2013-11-5,44.5,34.6,26.4,22.4,12.5,-0.9,73,44,15,30.24,29.97,8,1,10,0.00
2013-11-6,51.3,39.4,25.1,18.1,12.4,1.4,57,35,20,30.38,30.16,12,2,20,0.00
2013-11-7,55.9,41.2,27.0,30.0,22.7,15.8,73,50,28,30.49,29.99,3,0,10,0.00
2013-11-8,67.3,55.8,32.2,25.6,17.2,7.5,72,27,12,29.98,29.64,22,6,37,0.00
2013-11-9,59.9,48.5,35.2,32.1,27.1,15.4,73,46,18,30.24,29.80,6,1,10,0.00
2013-11-10,68.8,49.2,29.8,29.2,23.9,16.3,84,44,14,30.28,30.05,7,1,16,0.00
2013-11-11,67.6,44.5,31.5,31.9,24.6,16.3,85,51,14,30.61,30.03,7,2,14,0.00
2013-11-12,56.5,40.1,28.4,33.9,29.3,24.8,92,68,41,30.74,30.40,4,1,6,0.00
2013-11-13,68.8,49.4,29.0,30.7,20.0,10.1,80,38,11,30.40,29.80,6,1,9,0.00
2013-11-14,58.0,49.5,35.9,32.6,27.6,16.5,72,45,21,30.02,29.71,9,2,15,0.00
2013-11-15,64.3,48.7,31.8,28.4,20.2,8.4,75,39,11,29.71,29.32,17,6,23,0.00
2013-11-16,56.5,47.2,37.9,33.6,19.1,11.3,75,34,19,29.48,29.18,22,6,30,0.00
2013-11-17,58.1,44.4,31.2,26.2,15.5,7.6,64,34,14,30.07,29.43,10,3,18,0.00
2013-11-18,66.4,43.4,24.7,22.1,15.0,6.6,69,38,10,30.22,29.93,6,2,11,0.00
2013-11-19,60.2,47.9,29.4,29.1,20.5,9.5,61,36,17,29.94,29.62,10,2,18,0.00
2013-11-20,58.7,50.2,29.1,30.3,24.9,19.8,82,38,23,30.01,29.61,10,2,11,0.00
2013-11-21,28.8,17.2,14.3,24.4,12.6,7.9,89,82,74,30.89,30.03,3,2,7,0.00
2013-11-22,33.7,26.1,17.7,22.0,16.0,2.9,88,67,32,30.84,30.62,2,0,5,0.09
2013-11-23,34.0,28.2,24.1,21.8,19.0,2.4,89,69,31,30.78,30.44,5,0,7,0.06
2013-11-24,39.1,29.4,21.6,32.0,22.8,17.6,87,77,46,30.44,30.08,3,0,5,0.01
2013-11-25,40.6,35.2,27.5,28.7,22.3,14.7,88,60,36,30.40,30.08,4,1,7,0.01
2013-11-26,49.9,36.3,25.0,23.3,19.4,14.5,84,54,25,30.52,30.29,4,1,7,0.00
2013-11-27,63.5,40.3,21.3,28.3,20.4,14.8,89,52,17,30.31,30.01,8,1,13,0.00
2013-11-28,46.5,35.0,26.7,26.4,23.1,19.1,87,63,42,30.31,30.08,3,0,5,0.00
2013-11-29,62.9,44.9,27.0,29.3,19.5,12.0,85,45,15,30.23,30.02,6,1,10,0.00
2013-11-30,59.6,43.7,29.1,23.3,15.3,6.7,64,35,14,30.22,30.04,10,2,14,0.00
2013-12-1,55.7,44.3,28.5,24.0,18.6,14.3,67,39,20,30.19,29.74,11,2,14,0.00
2013-12-2,58.4,52.9,47.7,23.6,19.7,16.3,38,27,21,29.75,29.38,18,6,26,0.00
2013-12-3,55.0,37.6,11.2,29.1,17.3,6.2,84,50,21,29.86,29.28,17,6,26,0.00
2013-12-4,11.2,7.8,2.4,6.5,1.9,-5.5,81,76,67,30.46,29.85,4,2,7,0.00
2013-12-5,6.3,2.0,-4.8,-1.9,-6.1,-10.8,80,68,57,30.56,30.40,3,1,6,0.00
2013-12-6,7.2,0.9,-5.0,-2.8,-6.2,-11.3,78,72,60,30.71,30.53,2,0,5,0.00
2013-12-7,7.9,2.2,-5.0,3.8,-4.3,-10.6,83,74,66,30.64,30.17,2,0,5,0.00
2013-12-8,17.8,8.9,3.2,8.0,2.2,-2.9,80,74,61,30.37,30.09,3,0,5,0.01
2013-12-9,28.2,13.7,-1.4,6.1,-2.3,-10.4,79,53,22,30.51,30.28,15,2,0,0.00
2013-12-10,44.9,32.1,18.0,14.4,7.4,-2.6,61,37,21,30.33,29.93,25,5,0,0.06
2013-12-11,28.8,20.2,11.6,16.8,12.2,6.9,86,72,56,30.60,30.32,3,0,0,0.00
2013-12-12,50.4,30.1,12.9,22.4,14.2,7.7,85,58,22,30.55,30.04,2,0,0,0.00
2013-12-13,50.1,32.6,17.3,18.4,14.3,8.4,80,51,20,30.20,29.90,5,1,0,0.00
2013-12-14,47.4,33.9,18.8,19.0,13.3,6.9,80,47,20,30.43,30.14,11,2,0,0.00
2013-12-15,56.5,49.0,38.6,18.1,12.5,5.2,41,24,14,30.24,29.93,21,7,0,0.00
2013-12-16,63.1,52.6,35.9,16.8,10.2,3.3,37,19,10,30.15,29.90,11,3,0,0.00
2013-12-17,62.3,48.7,28.5,19.3,13.1,6.3,61,28,12,30.37,29.87,13,3,0,0.00
2013-12-18,68.1,55.4,44.5,17.6,10.7,4.2,26,17,8,29.86,29.51,9,2,0,0.00
2013-12-19,53.2,34.9,16.9,24.2,18.7,12.7,89,55,20,30.05,29.47,6,2,0,0.00
2013-12-20,24.4,19.7,14.8,19.1,15.7,11.4,89,84,77,30.04,29.88,4,1,0,0.00
2013-12-21,31.5,22.7,12.4,25.2,17.5,8.5,92,81,57,30.04,29.78,5,1,0,0.00
2013-12-22,39.8,26.2,12.9,20.2,14.8,7.9,89,66,27,30.43,30.03,6,1,0,0.02
2013-12-23,47.1,27.7,18.8,23.6,19.2,15.3,88,73,33,30.47,30.08,14,1,0,0.02
2013-12-24,51.3,42.0,25.1,31.1,15.7,2.8,59,35,23,30.34,29.92,23,6,0,0.01
2013-12-25,45.8,33.2,17.2,15.4,6.7,-1.4,76,38,14,30.55,30.14,10,2,0,0.00
2013-12-26,55.1,43.7,27.6,14.6,7.7,-2.7,56,25,14,30.33,30.13,12,2,0,0.00
2013-12-27,59.2,39.5,24.5,21.1,17.9,13.4,71,45,20,30.38,30.02,3,1,0,0.00
2013-12-28,54.4,35.2,21.8,25.0,20.2,16.0,86,57,27,30.28,29.84,7,1,0,0.00
2013-12-29,41.1,26.0,14.1,20.0,12.5,3.6,87,60,21,30.46,29.95,6,2,0,0.03
2013-12-30,49.4,38.8,27.3,15.8,9.7,5.3,57,32,17,30.28,29.98,11,2,0,0.00
2013-12-31,56.9,45.3,29.3,21.0,16.8,11.9,56,33,20,30.12,29.83,9,2,0,0.00
2014-1-1,44.2,34.2,22.9,29.3,23.4,17.7,84,67,35,30.41,29.80,7,2,0,0.00
2014-1-2,40.3,27.3,16.1,23.3,18.7,12.9,89,72,43,30.46,30.10,3,1,0,0.01